Time,TemperatureF,DewpointF,PressureIn,WindDirection,WindDirectionDegrees,WindSpeedMPH,WindSpeedGustMPH,Humidity,HourlyPrecipIn,Conditions,Clouds,dailyrainin,SoftwareType,DateUTC
2013-01-16 00:02:00,22.4,19.4,30.16,West,273,0.0,0.0,88,0.00,,,0.00,Wunderground v.1.15,2013-01-16 05:02:00,
2013-01-16 00:04:00,22.4,19.4,30.16,West,273,0.0,0.0,88,0.00,,,0.00,Wunderground v.1.15,2013-01-16 05:04:00,
2013-01-16 00:07:00,22.4,19.4,30.16,West,273,0.0,0.0,88,0.00,,,0.00,Wunderground v.1.15,2013-01-16 05:07:00,
2013-01-16 00:09:00,22.3,19.3,30.16,West,273,0.0,0.0,88,0.00,,,0.00,Wunderground v.1.15,2013-01-16 05:09:00,
2013-01-16 00:14:00,22.3,19.3,30.16,West,273,0.0,0.0,88,0.00,,,0.00,Wunderground v.1.15,2013-01-16 05:14:00,
2013-01-16 00:20:00,22.2,19.2,30.15,West,273,0.0,0.0,88,0.00,,,0.00,Wunderground v.1.15,2013-01-16 05:20:00,
2013-01-16 00:25:00,22.2,19.2,30.14,West,273,0.0,0.0,88,0.00,,,0.00,Wunderground v.1.15,2013-01-16 05:25:00,
2013-01-16 00:31:00,22.2,19.5,30.14,West,273,0.0,0.0,89,0.00,,,0.00,Wunderground v.1.15,2013-01-16 05:31:00,
2013-01-16 00:36:00,22.2,19.5,30.14,West,273,0.0,0.0,89,0.00,,,0.00,Wunderground v.1.15,2013-01-16 05:36:00,
2013-01-16 00:42:00,22.1,19.4,30.14,West,273,0.0,0.0,89,0.00,,,0.00,Wunderground v.1.15,2013-01-16 05:42:00,
2013-01-16 00:48:00,22.0,19.3,30.13,West,273,0.0,0.0,89,0.00,,,0.00,Wunderground v.1.15,2013-01-16 05:48:00,
2013-01-16 00:53:00,22.0,19.3,30.14,West,273,0.0,0.0,89,0.00,,,0.00,Wunderground v.1.15,2013-01-16 05:53:00,
2013-01-16 00:58:00,22.0,19.3,30.13,West,273,0.0,0.0,89,0.00,,,0.00,Wunderground v.1.15,2013-01-16 05:58:00,
2013-01-16 01:04:00,21.9,19.2,30.13,West,273,0.0,0.0,89,0.00,,,0.00,Wunderground v.1.15,2013-01-16 06:04:00,
2013-01-16 01:10:00,21.9,19.2,30.12,West,273,0.0,0.0,89,0.00,,,0.00,Wunderground v.1.15,2013-01-16 06:10:00,
2013-01-16 01:15:00,21.8,19.1,30.12,West,273,0.0,0.0,89,0.00,,,0.00,Wunderground v.1.15,2013-01-16 06:15:00,
2013-01-16 01:21:00,21.6,18.9,30.11,West,273,0.0,0.0,89,0.00,,,0.00,Wunderground v.1.15,2013-01-16 06:21:00,
2013-01-16 01:26:00,21.5,19.0,30.11,West,273,0.0,0.0,90,0.00,,,0.00,Wunderground v.1.15,2013-01-16 06:26:00,
2013-01-16 01:32:00,21.4,18.9,30.11,West,273,0.0,0.0,90,0.00,,,0.00,Wunderground v.1.15,2013-01-16 06:32:00,
2013-01-16 01:37:00,21.3,18.8,30.11,West,273,0.0,0.0,90,0.00,,,0.00,Wunderground v.1.15,2013-01-16 06:37:00,
2013-01-16 01:43:00,21.1,18.6,30.11,West,273,0.0,0.0,90,0.00,,,0.00,Wunderground v.1.15,2013-01-16 06:43:00,
2013-01-16 01:48:00,21.0,18.5,30.12,West,273,0.0,0.0,90,0.00,,,0.00,Wunderground v.1.15,2013-01-16 06:48:00,
2013-01-16 01:54:00,20.9,18.7,30.12,West,273,0.0,0.0,91,0.00,,,0.00,Wunderground v.1.15,2013-01-16 06:54:00,
2013-01-16 01:59:00,20.8,18.6,30.11,West,273,0.0,0.0,91,0.00,,,0.00,Wunderground v.1.15,2013-01-16 06:59:00,
2013-01-16 02:05:00,20.8,18.6,30.11,West,273,0.0,0.0,91,0.00,,,0.00,Wunderground v.1.15,2013-01-16 07:05:00,
2013-01-16 02:11:00,20.8,18.6,30.10,West,273,0.0,0.0,91,0.00,,,0.00,Wunderground v.1.15,2013-01-16 07:11:00,
2013-01-16 02:16:00,20.6,18.4,30.10,West,273,0.0,0.0,91,0.00,,,0.00,Wunderground v.1.15,2013-01-16 07:16:00,
2013-01-16 02:22:00,20.4,18.2,30.10,West,273,0.0,0.0,91,0.00,,,0.00,Wunderground v.1.15,2013-01-16 07:22:00,
2013-01-16 02:28:00,20.4,18.2,30.09,West,273,0.0,0.0,91,0.00,,,0.00,Wunderground v.1.15,2013-01-16 07:28:00,
2013-01-16 02:33:00,20.3,18.1,30.10,West,273,0.0,0.0,91,0.00,,,0.00,Wunderground v.1.15,2013-01-16 07:33:00,
2013-01-16 02:38:00,20.3,18.3,30.10,West,273,0.0,0.0,92,0.00,,,0.00,Wunderground v.1.15,2013-01-16 07:38:00,
2013-01-16 02:44:00,20.4,18.4,30.09,West,273,0.0,0.0,92,0.00,,,0.00,Wunderground v.1.15,2013-01-16 07:44:00,
2013-01-16 02:49:00,20.5,18.5,30.09,West,273,0.0,0.0,92,0.00,,,0.00,Wunderground v.1.15,2013-01-16 07:49:00,
2013-01-16 02:55:00,20.4,18.4,30.09,West,273,0.0,0.0,92,0.00,,,0.00,Wunderground v.1.15,2013-01-16 07:55:00,
2013-01-16 03:00:00,20.4,18.4,30.09,West,273,0.0,0.0,92,0.00,,,0.00,Wunderground v.1.15,2013-01-16 08:00:00,
2013-01-16 03:06:00,20.4,18.4,30.08,West,273,0.0,0.0,92,0.00,,,0.00,Wunderground v.1.15,2013-01-16 08:06:00,
2013-01-16 03:12:00,20.4,18.4,30.08,West,273,0.0,0.0,92,0.00,,,0.00,Wunderground v.1.15,2013-01-16 08:12:00,
2013-01-16 03:17:00,20.3,18.3,30.08,West,273,0.0,0.0,92,0.00,,,0.00,Wunderground v.1.15,2013-01-16 08:17:00,
2013-01-16 03:23:00,20.3,18.3,30.08,West,273,0.0,0.0,92,0.00,,,0.00,Wunderground v.1.15,2013-01-16 08:23:00,
2013-01-16 03:28:00,20.3,18.3,30.08,West,273,0.0,0.0,92,0.00,,,0.00,Wunderground v.1.15,2013-01-16 08:28:00,
2013-01-16 03:34:00,20.2,18.2,30.08,West,273,0.0,0.0,92,0.00,,,0.00,Wunderground v.1.15,2013-01-16 08:34:00,
2013-01-16 03:39:00,20.3,18.3,30.08,West,273,0.0,0.0,92,0.00,,,0.00,Wunderground v.1.15,2013-01-16 08:39:00,
2013-01-16 03:45:00,20.3,18.6,30.08,West,273,0.0,0.0,93,0.00,,,0.00,Wunderground v.1.15,2013-01-16 08:45:00,
2013-01-16 03:50:00,20.3,18.6,30.08,West,273,0.0,0.0,93,0.00,,,0.00,Wunderground v.1.15,2013-01-16 08:50:00,
2013-01-16 03:55:00,20.3,18.6,30.07,West,273,0.0,0.0,93,0.00,,,0.00,Wunderground v.1.15,2013-01-16 08:55:00,
2013-01-16 04:00:00,20.4,18.7,30.07,West,273,0.0,0.0,93,0.00,,,0.00,Wunderground v.1.15,2013-01-16 09:00:00,
2013-01-16 04:06:00,20.5,18.8,30.06,West,273,0.0,0.0,93,0.00,,,0.00,Wunderground v.1.15,2013-01-16 09:06:00,
2013-01-16 04:11:00,20.6,18.9,30.06,West,273,0.0,0.0,93,0.00,,,0.00,Wunderground v.1.15,2013-01-16 09:11:00,
2013-01-16 04:16:00,20.5,18.8,30.06,West,273,0.0,0.0,93,0.00,,,0.00,Wunderground v.1.15,2013-01-16 09:16:00,
2013-01-16 04:22:00,20.3,18.3,30.06,West,273,0.0,0.0,92,0.00,,,0.00,Wunderground v.1.15,2013-01-16 09:22:00,
2013-01-16 04:27:00,20.0,18.1,30.06,West,273,0.0,0.0,92,0.00,,,0.00,Wunderground v.1.15,2013-01-16 09:27:00,
2013-01-16 04:33:00,19.8,17.9,30.05,West,273,0.0,0.0,92,0.00,,,0.00,Wunderground v.1.15,2013-01-16 09:33:00,
2013-01-16 04:38:00,19.6,17.7,30.06,West,273,0.0,0.0,92,0.00,,,0.00,Wunderground v.1.15,2013-01-16 09:38:00,
2013-01-16 04:43:00,19.4,17.5,30.05,West,273,0.0,0.0,92,0.00,,,0.00,Wunderground v.1.15,2013-01-16 09:43:00,
2013-01-16 04:49:00,19.5,17.6,30.05,West,273,0.0,0.0,92,0.00,,,0.00,Wunderground v.1.15,2013-01-16 09:49:00,
2013-01-16 04:54:00,19.7,18.0,30.05,West,273,0.0,0.0,93,0.00,,,0.00,Wunderground v.1.15,2013-01-16 09:54:00,
2013-01-16 05:00:00,19.9,18.2,30.06,West,273,0.0,0.0,93,0.00,,,0.00,Wunderground v.1.15,2013-01-16 10:00:00,
2013-01-16 05:06:00,19.9,18.2,30.06,West,273,0.0,0.0,93,0.00,,,0.00,Wunderground v.1.15,2013-01-16 10:06:00,
2013-01-16 05:11:00,19.8,18.1,30.06,West,273,0.0,0.0,93,0.00,,,0.00,Wunderground v.1.15,2013-01-16 10:11:00,
2013-01-16 05:16:00,19.8,18.1,30.06,West,273,0.0,0.0,93,0.00,,,0.00,Wunderground v.1.15,2013-01-16 10:16:00,
2013-01-16 05:22:00,19.8,18.1,30.05,West,273,0.0,0.0,93,0.00,,,0.00,Wunderground v.1.15,2013-01-16 10:22:00,
2013-01-16 05:28:00,19.9,18.2,30.04,West,273,0.0,0.0,93,0.00,,,0.00,Wunderground v.1.15,2013-01-16 10:28:00,
2013-01-16 05:34:00,20.0,18.3,30.04,West,273,0.0,0.0,93,0.00,,,0.00,Wunderground v.1.15,2013-01-16 10:34:00,
2013-01-16 05:40:00,20.2,18.5,30.03,West,273,0.0,0.0,93,0.00,,,0.00,Wunderground v.1.15,2013-01-16 10:40:00,
2013-01-16 05:45:00,20.3,18.6,30.03,West,273,0.0,0.0,93,0.00,,,0.00,Wunderground v.1.15,2013-01-16 10:45:00,
2013-01-16 05:51:00,20.4,18.7,30.03,West,273,0.0,0.0,93,0.00,,,0.00,Wunderground v.1.15,2013-01-16 10:51:00,
2013-01-16 05:56:00,20.5,18.8,30.03,West,273,0.0,0.0,93,0.00,,,0.00,Wunderground v.1.15,2013-01-16 10:56:00,
2013-01-16 06:01:00,20.4,18.4,30.03,West,273,0.0,0.0,92,0.00,,,0.00,Wunderground v.1.15,2013-01-16 11:01:00,
2013-01-16 06:07:00,20.3,18.3,30.03,West,273,0.0,0.0,92,0.00,,,0.00,Wunderground v.1.15,2013-01-16 11:07:00,
2013-01-16 06:13:00,20.3,18.3,30.02,West,273,0.0,0.0,92,0.00,,,0.00,Wunderground v.1.15,2013-01-16 11:13:00,
2013-01-16 06:19:00,20.2,18.2,30.02,West,273,0.0,0.0,92,0.00,,,0.00,Wunderground v.1.15,2013-01-16 11:19:00,
2013-01-16 06:24:00,20.0,18.1,30.01,West,273,0.0,0.0,92,0.00,,,0.00,Wunderground v.1.15,2013-01-16 11:24:00,
2013-01-16 06:29:00,19.9,18.0,30.01,West,273,0.0,0.0,92,0.00,,,0.00,Wunderground v.1.15,2013-01-16 11:29:00,
2013-01-16 06:35:00,19.9,18.0,30.00,West,273,0.0,0.0,92,0.00,,,0.00,Wunderground v.1.15,2013-01-16 11:35:00,
2013-01-16 06:41:00,20.0,18.1,30.00,West,273,0.0,0.0,92,0.00,,,0.00,Wunderground v.1.15,2013-01-16 11:41:00,
2013-01-16 06:47:00,20.2,18.5,29.99,West,273,0.0,0.0,93,0.00,,,0.00,Wunderground v.1.15,2013-01-16 11:47:00,
2013-01-16 06:52:00,20.3,18.3,29.99,West,273,0.0,0.0,92,0.00,,,0.00,Wunderground v.1.15,2013-01-16 11:52:00,
2013-01-16 06:58:00,20.3,18.3,30.00,West,273,0.0,0.0,92,0.00,,,0.00,Wunderground v.1.15,2013-01-16 11:58:00,
2013-01-16 07:03:00,20.3,18.3,30.00,West,273,0.0,0.0,92,0.00,,,0.00,Wunderground v.1.15,2013-01-16 12:03:00,
2013-01-16 07:09:00,20.3,18.3,29.99,West,273,0.0,0.0,92,0.00,,,0.00,Wunderground v.1.15,2013-01-16 12:09:00,
2013-01-16 07:14:00,20.3,18.3,30.00,West,273,0.0,0.0,92,0.00,,,0.00,Wunderground v.1.15,2013-01-16 12:14:00,
2013-01-16 07:20:00,20.2,18.2,30.00,West,273,0.0,0.0,92,0.00,,,0.00,Wunderground v.1.15,2013-01-16 12:20:00,
2013-01-16 07:25:00,20.0,17.8,29.99,West,273,0.0,0.0,91,0.00,,,0.00,Wunderground v.1.15,2013-01-16 12:25:00,
2013-01-16 07:31:00,19.9,17.7,29.99,West,273,0.0,0.0,91,0.00,,,0.00,Wunderground v.1.15,2013-01-16 12:31:00,
2013-01-16 07:36:00,19.7,17.5,29.99,West,273,0.0,0.0,91,0.00,,,0.00,Wunderground v.1.15,2013-01-16 12:36:00,
2013-01-16 07:42:00,19.8,17.9,29.99,West,273,0.0,0.0,92,0.00,,,0.00,Wunderground v.1.15,2013-01-16 12:42:00,
2013-01-16 07:47:00,19.9,18.0,29.99,West,273,0.0,0.0,92,0.00,,,0.00,Wunderground v.1.15,2013-01-16 12:47:00,
2013-01-16 07:53:00,20.1,18.1,29.99,West,273,0.0,0.0,92,0.00,,,0.00,Wunderground v.1.15,2013-01-16 12:53:00,
2013-01-16 07:58:00,20.2,18.2,29.99,West,273,0.0,0.0,92,0.00,,,0.00,Wunderground v.1.15,2013-01-16 12:58:00,
2013-01-16 08:04:00,20.3,18.3,29.98,West,273,0.0,0.0,92,0.00,,,0.00,Wunderground v.1.15,2013-01-16 13:04:00,
2013-01-16 08:10:00,20.4,18.4,29.98,SE,139,1.0,1.0,92,0.00,,,0.00,Wunderground v.1.15,2013-01-16 13:10:00,
2013-01-16 08:15:00,20.3,18.3,29.98,SE,139,0.0,1.0,92,0.00,,,0.00,Wunderground v.1.15,2013-01-16 13:15:00,
2013-01-16 08:21:00,20.2,18.2,29.97,SE,139,0.0,0.0,92,0.00,,,0.00,Wunderground v.1.15,2013-01-16 13:21:00,
2013-01-16 08:26:00,20.2,18.2,29.97,SE,139,0.0,0.0,92,0.00,,,0.00,Wunderground v.1.15,2013-01-16 13:26:00,
2013-01-16 08:32:00,20.1,18.1,29.97,SE,140,0.0,0.0,92,0.00,,,0.00,Wunderground v.1.15,2013-01-16 13:32:00,
2013-01-16 08:37:00,20.2,18.2,29.97,SE,140,0.0,0.0,92,0.00,,,0.00,Wunderground v.1.15,2013-01-16 13:37:00,
2013-01-16 08:43:00,20.3,18.3,29.97,SE,140,0.0,0.0,92,0.00,,,0.00,Wunderground v.1.15,2013-01-16 13:43:00,
2013-01-16 08:48:00,20.4,18.4,29.97,SE,140,0.0,0.0,92,0.00,,,0.00,Wunderground v.1.15,2013-01-16 13:48:00,
2013-01-16 08:54:00,20.7,18.7,29.97,SSE,147,0.0,2.0,92,0.00,,,0.00,Wunderground v.1.15,2013-01-16 13:54:00,
2013-01-16 08:59:00,21.1,18.9,29.97,SSW,200,0.0,3.0,91,0.00,,,0.00,Wunderground v.1.15,2013-01-16 13:59:00,
2013-01-16 09:05:00,21.5,19.3,29.97,SSW,200,1.0,1.0,91,0.00,,,0.00,Wunderground v.1.15,2013-01-16 14:05:00,
2013-01-16 09:11:00,21.9,19.4,29.97,South,181,0.0,0.0,90,0.00,,,0.00,Wunderground v.1.15,2013-01-16 14:11:00,
2013-01-16 09:16:00,22.3,19.8,29.97,South,181,0.0,0.0,90,0.00,,,0.00,Wunderground v.1.15,2013-01-16 14:16:00,
2013-01-16 09:21:00,22.7,20.2,29.97,South,181,0.0,0.0,90,0.00,,,0.00,Wunderground v.1.15,2013-01-16 14:21:00,
2013-01-16 09:27:00,23.2,20.4,29.96,South,190,0.0,3.0,89,0.00,,,0.00,Wunderground v.1.15,2013-01-16 14:27:00,
2013-01-16 09:33:00,23.7,20.7,29.97,SSW,202,1.0,3.0,88,0.00,,,0.00,Wunderground v.1.15,2013-01-16 14:33:00,
2013-01-16 09:38:00,24.0,20.7,29.96,SSW,204,1.0,3.0,87,0.00,,,0.00,Wunderground v.1.15,2013-01-16 14:38:00,
2013-01-16 09:44:00,24.4,21.1,29.96,SSW,206,1.0,5.0,87,0.00,,,0.00,Wunderground v.1.15,2013-01-16 14:44:00,
2013-01-16 09:49:00,24.7,21.1,29.96,WSW,251,2.0,5.0,86,0.00,,,0.00,Wunderground v.1.15,2013-01-16 14:49:00,
2013-01-16 09:55:00,25.0,21.4,29.96,SW,232,1.0,4.0,86,0.00,,,0.00,Wunderground v.1.15,2013-01-16 14:55:00,
2013-01-16 10:00:00,25.3,21.7,29.95,WSW,248,1.0,8.0,86,0.00,,,0.00,Wunderground v.1.15,2013-01-16 15:00:00,
2013-01-16 10:06:00,25.7,21.8,29.95,West,274,2.0,8.0,85,0.00,,,0.00,Wunderground v.1.15,2013-01-16 15:06:00,
2013-01-16 10:11:00,26.0,21.8,29.96,SW,234,2.0,2.0,84,0.00,,,0.00,Wunderground v.1.15,2013-01-16 15:11:00,
2013-01-16 10:17:00,26.3,22.1,29.96,WSW,248,4.0,7.0,84,0.00,,,0.00,Wunderground v.1.15,2013-01-16 15:17:00,
2013-01-16 10:23:00,26.7,22.2,29.96,West,262,5.0,6.0,83,0.00,,,0.00,Wunderground v.1.15,2013-01-16 15:23:00,
2013-01-16 10:28:00,26.9,22.4,29.96,WSW,244,5.0,9.0,83,0.00,,,0.00,Wunderground v.1.15,2013-01-16 15:28:00,
2013-01-16 10:34:00,27.2,22.4,29.95,West,271,4.0,6.0,82,0.00,,,0.00,Wunderground v.1.15,2013-01-16 15:34:00,
2013-01-16 10:39:00,27.4,22.3,29.95,West,277,5.0,6.0,81,0.00,,,0.00,Wunderground v.1.15,2013-01-16 15:39:00,
2013-01-16 10:45:00,27.5,22.1,29.95,West,277,6.0,9.0,80,0.00,,,0.00,Wunderground v.1.15,2013-01-16 15:45:00,
2013-01-16 10:51:00,27.6,21.9,29.95,West,281,7.0,7.0,79,0.00,,,0.00,Wunderground v.1.15,2013-01-16 15:51:00,
2013-01-16 10:56:00,27.9,22.2,29.95,SW,217,5.0,7.0,79,0.00,,,0.00,Wunderground v.1.15,2013-01-16 15:56:00,
2013-01-16 11:02:00,28.3,22.3,29.94,SW,229,4.0,8.0,78,0.00,,,0.00,Wunderground v.1.15,2013-01-16 16:02:00,
2013-01-16 11:07:00,28.6,21.4,29.93,WNW,293,4.0,13.0,74,0.00,,,0.00,Wunderground v.1.15,2013-01-16 16:07:00,
2013-01-16 11:13:00,28.7,21.1,29.94,WNW,287,5.0,5.0,73,0.00,,,0.00,Wunderground v.1.15,2013-01-16 16:13:00,
2013-01-16 11:19:00,29.0,20.4,29.93,West,263,4.0,6.0,70,0.00,,,0.00,Wunderground v.1.15,2013-01-16 16:19:00,
2013-01-16 11:24:00,29.2,19.9,29.93,WSW,254,5.0,8.0,68,0.00,,,0.00,Wunderground v.1.15,2013-01-16 16:24:00,
2013-01-16 11:29:00,29.4,20.1,29.93,WSW,239,5.0,8.0,68,0.00,,,0.00,Wunderground v.1.15,2013-01-16 16:29:00,
2013-01-16 11:35:00,29.7,20.1,29.93,WSW,245,3.0,6.0,67,0.00,,,0.00,Wunderground v.1.15,2013-01-16 16:35:00,
2013-01-16 11:41:00,29.8,19.1,29.92,West,263,4.0,4.0,64,0.00,,,0.00,Wunderground v.1.15,2013-01-16 16:41:00,
2013-01-16 11:46:00,30.0,19.3,29.91,WSW,242,5.0,6.0,64,0.00,,,0.00,Wunderground v.1.15,2013-01-16 16:46:00,
2013-01-16 11:52:00,30.2,19.1,29.91,SSW,212,5.0,9.0,63,0.00,,,0.00,Wunderground v.1.15,2013-01-16 16:52:00,
2013-01-16 11:57:00,30.5,18.6,29.90,WSW,248,4.0,9.0,61,0.00,,,0.00,Wunderground v.1.15,2013-01-16 16:57:00,
2013-01-16 12:03:00,30.6,18.0,29.89,WSW,244,5.0,8.0,59,0.00,,,0.00,Wunderground v.1.15,2013-01-16 17:03:00,
2013-01-16 12:09:00,30.7,18.4,29.89,SE,136,6.0,11.0,60,0.00,,,0.00,Wunderground v.1.15,2013-01-16 17:09:00,
2013-01-16 12:14:00,31.1,18.8,29.88,SW,225,5.0,8.0,60,0.00,,,0.00,Wunderground v.1.15,2013-01-16 17:14:00,
2013-01-16 12:19:00,31.5,19.2,29.88,SSW,203,4.0,8.0,60,0.00,,,0.00,Wunderground v.1.15,2013-01-16 17:19:00,
2013-01-16 12:25:00,31.8,18.7,29.87,WSW,258,4.0,10.0,58,0.00,,,0.00,Wunderground v.1.15,2013-01-16 17:25:00,
2013-01-16 12:30:00,32.0,17.6,29.86,SSE,153,6.0,6.0,55,0.00,,,0.00,Wunderground v.1.15,2013-01-16 17:30:00,
2013-01-16 12:36:00,32.1,18.6,29.86,SW,230,5.0,9.0,57,0.00,,,0.00,Wunderground v.1.15,2013-01-16 17:36:00,
2013-01-16 12:41:00,32.3,18.3,29.86,SW,224,5.0,5.0,56,0.00,,,0.00,Wunderground v.1.15,2013-01-16 17:41:00,
2013-01-16 12:47:00,32.6,17.3,29.85,South,171,6.0,8.0,53,0.00,,,0.00,Wunderground v.1.15,2013-01-16 17:47:00,
2013-01-16 12:52:00,33.0,17.3,29.85,WSW,255,5.0,7.0,52,0.00,,,0.00,Wunderground v.1.15,2013-01-16 17:52:00,
2013-01-16 12:58:00,33.2,17.0,29.85,West,267,5.0,9.0,51,0.00,,,0.00,Wunderground v.1.15,2013-01-16 17:58:00,
2013-01-16 13:04:00,33.3,18.0,29.85,West,269,5.0,12.0,53,0.00,,,0.00,Wunderground v.1.15,2013-01-16 18:04:00,
2013-01-16 13:10:00,33.9,18.6,29.84,South,171,5.0,5.0,53,0.00,,,0.00,Wunderground v.1.15,2013-01-16 18:10:00,
2013-01-16 13:15:00,34.5,18.2,29.84,WSW,249,3.0,5.0,51,0.00,,,0.00,Wunderground v.1.15,2013-01-16 18:15:00,
2013-01-16 13:21:00,34.6,16.9,29.84,West,271,5.0,7.0,48,0.00,,,0.00,Wunderground v.1.15,2013-01-16 18:21:00,
2013-01-16 13:26:00,34.6,17.8,29.84,West,277,6.0,10.0,50,0.00,,,0.00,Wunderground v.1.15,2013-01-16 18:26:00,
2013-01-16 13:32:00,35.0,17.7,29.84,South,169,5.0,7.0,49,0.00,,,0.00,Wunderground v.1.15,2013-01-16 18:32:00,
2013-01-16 13:37:00,35.3,17.5,29.84,WNW,286,4.0,7.0,48,0.00,,,0.00,Wunderground v.1.15,2013-01-16 18:37:00,
2013-01-16 13:43:00,35.1,16.9,29.83,WSW,242,6.0,11.0,47,0.00,,,0.00,Wunderground v.1.15,2013-01-16 18:43:00,
2013-01-16 13:49:00,35.3,16.6,29.83,WSW,250,6.0,11.0,46,0.00,,,0.00,Wunderground v.1.15,2013-01-16 18:49:00,
2013-01-16 13:54:00,35.2,17.0,29.83,WNW,282,6.0,13.0,47,0.00,,,0.00,Wunderground v.1.15,2013-01-16 18:54:00,
2013-01-16 13:59:00,35.6,16.8,29.82,SSW,209,6.0,13.0,46,0.00,,,0.00,Wunderground v.1.15,2013-01-16 18:59:00,
2013-01-16 14:05:00,35.9,16.1,29.82,West,269,5.0,11.0,44,0.00,,,0.00,Wunderground v.1.15,2013-01-16 19:05:00,
2013-01-16 14:11:00,35.9,15.5,29.83,West,269,7.0,9.0,43,0.00,,,0.00,Wunderground v.1.15,2013-01-16 19:11:00,
2013-01-16 14:17:00,36.3,16.4,29.83,WNW,297,6.0,9.0,44,0.00,,,0.00,Wunderground v.1.15,2013-01-16 19:17:00,
2013-01-16 14:22:00,36.2,15.3,29.82,West,264,6.0,17.0,42,0.00,,,0.00,Wunderground v.1.15,2013-01-16 19:22:00,
2013-01-16 14:28:00,36.1,16.3,29.82,West,263,8.0,17.0,44,0.00,,,0.00,Wunderground v.1.15,2013-01-16 19:28:00,
2013-01-16 14:33:00,36.1,15.7,29.81,WSW,246,7.0,10.0,43,0.00,,,0.00,Wunderground v.1.15,2013-01-16 19:33:00,
2013-01-16 14:39:00,36.3,16.4,29.82,WNW,289,7.0,10.0,44,0.00,,,0.00,Wunderground v.1.15,2013-01-16 19:39:00,
2013-01-16 14:44:00,36.5,17.1,29.82,SSW,197,7.0,10.0,45,0.00,,,0.00,Wunderground v.1.15,2013-01-16 19:44:00,
2013-01-16 14:50:00,36.3,15.9,29.82,WSW,255,7.0,14.0,43,0.00,,,0.00,Wunderground v.1.15,2013-01-16 19:50:00,
2013-01-16 14:55:00,36.1,15.7,29.82,West,265,9.0,14.0,43,0.00,,,0.00,Wunderground v.1.15,2013-01-16 19:55:00,
2013-01-16 15:00:00,36.3,16.4,29.82,SW,229,7.0,7.0,44,0.00,,,0.00,Wunderground v.1.15,2013-01-16 20:00:00,
2013-01-16 15:06:00,36.3,15.4,29.82,West,281,7.0,12.0,42,0.00,,,0.00,Wunderground v.1.15,2013-01-16 20:06:00,
2013-01-16 15:11:00,36.0,15.6,29.81,West,270,9.0,12.0,43,0.00,,,0.00,Wunderground v.1.15,2013-01-16 20:11:00,
2013-01-16 15:17:00,36.0,16.7,29.81,SW,220,9.0,12.0,45,0.00,,,0.00,Wunderground v.1.15,2013-01-16 20:17:00,
2013-01-16 15:22:00,36.2,15.8,29.81,WNW,298,9.0,13.0,43,0.00,,,0.00,Wunderground v.1.15,2013-01-16 20:22:00,
2013-01-16 15:28:00,36.1,16.8,29.81,West,261,9.0,14.0,45,0.00,,,0.00,Wunderground v.1.15,2013-01-16 20:28:00,
2013-01-16 15:34:00,36.3,17.0,29.81,West,266,6.0,8.0,45,0.00,,,0.00,Wunderground v.1.15,2013-01-16 20:34:00,
2013-01-16 15:39:00,36.5,17.1,29.81,SW,229,5.0,8.0,45,0.00,,,0.00,Wunderground v.1.15,2013-01-16 20:39:00,
2013-01-16 15:44:00,36.4,17.1,29.81,West,265,4.0,6.0,45,0.00,,,0.00,Wunderground v.1.15,2013-01-16 20:44:00,
2013-01-16 15:50:00,36.1,17.3,29.81,WSW,252,5.0,6.0,46,0.00,,,0.00,Wunderground v.1.15,2013-01-16 20:50:00,
2013-01-16 15:55:00,35.7,16.4,29.81,West,260,7.0,11.0,45,0.00,,,0.00,Wunderground v.1.15,2013-01-16 20:55:00,
2013-01-16 16:00:00,35.5,16.7,29.81,WSW,249,8.0,8.0,46,0.00,,,0.00,Wunderground v.1.15,2013-01-16 21:00:00,
2013-01-16 16:06:00,35.4,16.6,29.81,South,186,7.0,14.0,46,0.00,,,0.00,Wunderground v.1.15,2013-01-16 21:06:00,
2013-01-16 16:11:00,35.3,17.1,29.82,West,277,8.0,9.0,47,0.00,,,0.00,Wunderground v.1.15,2013-01-16 21:11:00,
2013-01-16 16:17:00,35.2,17.0,29.81,WSW,257,8.0,12.0,47,0.00,,,0.00,Wunderground v.1.15,2013-01-16 21:17:00,
2013-01-16 16:22:00,35.1,17.4,29.82,West,259,7.0,10.0,48,0.00,,,0.00,Wunderground v.1.15,2013-01-16 21:22:00,
2013-01-16 16:27:00,35.0,17.3,29.81,WNW,284,5.0,10.0,48,0.00,,,0.00,Wunderground v.1.15,2013-01-16 21:27:00,
2013-01-16 16:33:00,34.9,17.2,29.81,West,275,6.0,11.0,48,0.00,,,0.00,Wunderground v.1.15,2013-01-16 21:33:00,
2013-01-16 16:39:00,34.8,17.1,29.82,West,269,6.0,15.0,48,0.00,,,0.00,Wunderground v.1.15,2013-01-16 21:39:00,
2013-01-16 16:44:00,34.8,17.1,29.82,SE,133,8.0,12.0,48,0.00,,,0.00,Wunderground v.1.15,2013-01-16 21:44:00,
2013-01-16 16:50:00,34.7,17.9,29.82,SW,222,6.0,6.0,50,0.00,,,0.00,Wunderground v.1.15,2013-01-16 21:50:00,
2013-01-16 16:55:00,34.7,17.9,29.83,WNW,282,3.0,9.0,50,0.00,,,0.00,Wunderground v.1.15,2013-01-16 21:55:00,
2013-01-16 17:00:00,34.6,18.3,29.83,West,278,5.0,6.0,51,0.00,,,0.00,Wunderground v.1.15,2013-01-16 22:00:00,
2013-01-16 17:06:00,34.5,18.2,29.83,SW,218,5.0,7.0,51,0.00,,,0.00,Wunderground v.1.15,2013-01-16 22:06:00,
2013-01-16 17:12:00,34.4,18.1,29.83,SW,223,4.0,7.0,51,0.00,,,0.00,Wunderground v.1.15,2013-01-16 22:12:00,
2013-01-16 17:18:00,34.4,18.1,29.84,WNW,290,7.0,15.0,51,0.00,,,0.00,Wunderground v.1.15,2013-01-16 22:18:00,
2013-01-16 17:24:00,34.3,18.5,29.85,WSW,253,6.0,9.0,52,0.00,,,0.00,Wunderground v.1.15,2013-01-16 22:24:00,
2013-01-16 17:29:00,34.3,18.5,29.84,WSW,252,6.0,9.0,52,0.00,,,0.00,Wunderground v.1.15,2013-01-16 22:29:00,
2013-01-16 17:35:00,34.2,18.4,29.85,West,261,5.0,10.0,52,0.00,,,0.00,Wunderground v.1.15,2013-01-16 22:35:00,
2013-01-16 17:40:00,34.2,18.8,29.85,WSW,245,5.0,6.0,53,0.00,,,0.00,Wunderground v.1.15,2013-01-16 22:40:00,
2013-01-16 17:45:00,34.2,18.8,29.84,SW,220,6.0,9.0,53,0.00,,,0.00,Wunderground v.1.15,2013-01-16 22:45:00,
2013-01-16 17:51:00,34.1,18.7,29.84,West,263,6.0,8.0,53,0.00,,,0.00,Wunderground v.1.15,2013-01-16 22:51:00,
2013-01-16 17:57:00,34.1,19.2,29.84,West,269,6.0,10.0,54,0.00,,,0.00,Wunderground v.1.15,2013-01-16 22:57:00,
2013-01-16 18:03:00,34.0,19.1,29.84,WSW,250,6.0,11.0,54,0.00,,,0.00,Wunderground v.1.15,2013-01-16 23:03:00,
2013-01-16 18:08:00,34.0,19.5,29.84,WSW,244,6.0,13.0,55,0.00,,,0.00,Wunderground v.1.15,2013-01-16 23:08:00,
2013-01-16 18:13:00,33.9,19.4,29.85,WNW,298,6.0,12.0,55,0.00,,,0.00,Wunderground v.1.15,2013-01-16 23:13:00,
2013-01-16 18:19:00,33.8,19.3,29.85,SW,234,8.0,16.0,55,0.00,,,0.00,Wunderground v.1.15,2013-01-16 23:19:00,
2013-01-16 18:24:00,33.8,19.3,29.85,WSW,243,8.0,8.0,55,0.00,,,0.00,Wunderground v.1.15,2013-01-16 23:24:00,
2013-01-16 18:30:00,33.7,19.7,29.85,WSW,252,6.0,11.0,56,0.00,,,0.00,Wunderground v.1.15,2013-01-16 23:30:00,
2013-01-16 18:36:00,33.7,19.7,29.85,South,175,7.0,13.0,56,0.00,,,0.00,Wunderground v.1.15,2013-01-16 23:36:00,
2013-01-16 18:41:00,33.7,20.1,29.86,West,265,7.0,11.0,57,0.00,,,0.00,Wunderground v.1.15,2013-01-16 23:41:00,
2013-01-16 18:46:00,33.8,20.2,29.86,West,277,7.0,12.0,57,0.00,,,0.00,Wunderground v.1.15,2013-01-16 23:46:00,
2013-01-16 18:52:00,33.7,20.1,29.87,WSW,254,7.0,10.0,57,0.00,,,0.00,Wunderground v.1.15,2013-01-16 23:52:00,
2013-01-16 18:57:00,33.7,20.5,29.87,WSW,239,7.0,12.0,58,0.00,,,0.00,Wunderground v.1.15,2013-01-16 23:57:00,
2013-01-16 19:02:00,33.7,20.5,29.88,SW,231,7.0,12.0,58,0.00,,,0.00,Wunderground v.1.15,2013-01-17 00:02:00,
2013-01-16 19:08:00,33.7,20.9,29.88,WSW,249,7.0,13.0,59,0.00,,,0.00,Wunderground v.1.15,2013-01-17 00:08:00,
2013-01-16 19:13:00,33.7,20.9,29.88,WNW,285,7.0,13.0,59,0.00,,,0.00,Wunderground v.1.15,2013-01-17 00:13:00,
2013-01-16 19:19:00,33.6,20.8,29.88,West,277,8.0,14.0,59,0.00,,,0.00,Wunderground v.1.15,2013-01-17 00:19:00,
2013-01-16 19:24:00,33.6,21.2,29.88,West,267,8.0,11.0,60,0.00,,,0.00,Wunderground v.1.15,2013-01-17 00:24:00,
2013-01-16 19:30:00,33.5,21.5,29.88,West,264,8.0,8.0,61,0.00,,,0.00,Wunderground v.1.15,2013-01-17 00:30:00,
2013-01-16 19:35:00,33.5,21.5,29.88,SW,234,7.0,9.0,61,0.00,,,0.00,Wunderground v.1.15,2013-01-17 00:35:00,
2013-01-16 19:41:00,33.4,21.8,29.88,WSW,248,8.0,10.0,62,0.00,,,0.00,Wunderground v.1.15,2013-01-17 00:41:00,
2013-01-16 19:46:00,33.4,21.8,29.88,WSW,254,7.0,14.0,62,0.00,,,0.00,Wunderground v.1.15,2013-01-17 00:46:00,
2013-01-16 19:52:00,33.4,22.1,29.88,West,260,8.0,16.0,63,0.00,,,0.00,Wunderground v.1.15,2013-01-17 00:52:00,
2013-01-16 19:57:00,33.4,22.1,29.89,WNW,292,10.0,16.0,63,0.00,,,0.00,Wunderground v.1.15,2013-01-17 00:57:00,
2013-01-16 20:03:00,33.3,22.4,29.89,West,265,9.0,12.0,64,0.00,,,0.00,Wunderground v.1.15,2013-01-17 01:03:00,
2013-01-16 20:09:00,33.3,22.4,29.89,West,269,8.0,12.0,64,0.00,,,0.00,Wunderground v.1.15,2013-01-17 01:09:00,
2013-01-16 20:14:00,33.3,22.8,29.89,NW,305,8.0,13.0,65,0.00,,,0.00,Wunderground v.1.15,2013-01-17 01:14:00,
2013-01-16 20:20:00,33.2,23.1,29.89,WSW,244,6.0,8.0,66,0.00,,,0.00,Wunderground v.1.15,2013-01-17 01:20:00,
2013-01-16 20:25:00,33.2,23.1,29.89,West,276,6.0,13.0,66,0.00,,,0.00,Wunderground v.1.15,2013-01-17 01:25:00,
2013-01-16 20:31:00,33.1,23.3,29.89,West,275,7.0,7.0,67,0.00,,,0.00,Wunderground v.1.15,2013-01-17 01:31:00,
2013-01-16 20:36:00,33.1,23.3,29.89,WNW,285,6.0,10.0,67,0.00,,,0.00,Wunderground v.1.15,2013-01-17 01:36:00,
2013-01-16 20:42:00,33.0,23.6,29.89,West,280,6.0,10.0,68,0.00,,,0.00,Wunderground v.1.15,2013-01-17 01:42:00,
2013-01-16 20:47:00,33.0,23.9,29.90,WSW,247,7.0,10.0,69,0.00,,,0.00,Wunderground v.1.15,2013-01-17 01:47:00,
2013-01-16 20:53:00,33.0,24.3,29.90,WSW,258,7.0,7.0,70,0.00,,,0.00,Wunderground v.1.15,2013-01-17 01:53:00,
2013-01-16 20:59:00,33.0,24.6,29.90,West,271,7.0,7.0,71,0.00,,,0.00,Wunderground v.1.15,2013-01-17 01:59:00,
2013-01-16 21:04:00,33.0,25.0,29.90,West,273,6.0,9.0,72,0.00,,,0.00,Wunderground v.1.15,2013-01-17 02:04:00,
2013-01-16 21:10:00,33.0,25.0,29.91,West,271,6.0,7.0,72,0.00,,,0.00,Wunderground v.1.15,2013-01-17 02:10:00,
2013-01-16 21:15:00,33.0,25.3,29.91,WSW,241,7.0,11.0,73,0.00,,,0.00,Wunderground v.1.15,2013-01-17 02:15:00,
2013-01-16 21:21:00,33.0,25.6,29.91,WSW,252,7.0,7.0,74,0.00,,,0.00,Wunderground v.1.15,2013-01-17 02:21:00,
2013-01-16 21:26:00,33.0,25.6,29.91,SW,234,6.0,10.0,74,0.00,,,0.00,Wunderground v.1.15,2013-01-17 02:26:00,
2013-01-16 21:32:00,33.0,25.9,29.91,WNW,300,6.0,10.0,75,0.00,,,0.00,Wunderground v.1.15,2013-01-17 02:32:00,
2013-01-16 21:37:00,33.1,26.0,29.91,WNW,282,7.0,10.0,75,0.00,,,0.00,Wunderground v.1.15,2013-01-17 02:37:00,
2013-01-16 21:43:00,33.1,26.4,29.92,WSW,248,7.0,7.0,76,0.00,,,0.00,Wunderground v.1.15,2013-01-17 02:43:00,
2013-01-16 21:48:00,33.2,26.8,29.92,West,269,6.0,12.0,77,0.00,,,0.00,Wunderground v.1.15,2013-01-17 02:48:00,
2013-01-16 21:54:00,33.2,26.8,29.92,West,264,7.0,13.0,77,0.00,,,0.00,Wunderground v.1.15,2013-01-17 02:54:00,
2013-01-16 21:59:00,33.4,27.3,29.92,WSW,248,8.0,13.0,78,0.00,,,0.00,Wunderground v.1.15,2013-01-17 02:59:00,
2013-01-16 22:05:00,33.6,27.5,29.92,WNW,291,9.0,14.0,78,0.00,,,0.00,Wunderground v.1.15,2013-01-17 03:05:00,
2013-01-16 22:11:00,33.6,27.8,29.92,WNW,293,8.0,9.0,79,0.00,,,0.00,Wunderground v.1.15,2013-01-17 03:11:00,
2013-01-16 22:16:00,33.6,27.8,29.92,WSW,250,7.0,9.0,79,0.00,,,0.00,Wunderground v.1.15,2013-01-17 03:16:00,
2013-01-16 22:22:00,33.5,27.7,29.92,West,275,6.0,10.0,79,0.00,,,0.00,Wunderground v.1.15,2013-01-17 03:22:00,
2013-01-16 22:27:00,33.5,27.7,29.93,WSW,257,6.0,10.0,79,0.00,,,0.00,Wunderground v.1.15,2013-01-17 03:27:00,
2013-01-16 22:33:00,33.4,27.9,29.93,WSW,251,6.0,9.0,80,0.00,,,0.00,Wunderground v.1.15,2013-01-17 03:33:00,
2013-01-16 22:39:00,33.3,27.8,29.93,NW,311,6.0,9.0,80,0.00,,,0.00,Wunderground v.1.15,2013-01-17 03:39:00,
2013-01-16 22:44:00,33.3,27.8,29.93,West,274,6.0,12.0,80,0.00,,,0.00,Wunderground v.1.15,2013-01-17 03:44:00,
2013-01-16 22:50:00,33.2,27.7,29.93,WSW,246,8.0,10.0,80,0.00,,,0.00,Wunderground v.1.15,2013-01-17 03:50:00,
2013-01-16 22:55:00,33.2,27.7,29.93,SW,225,8.0,10.0,80,0.00,,,0.00,Wunderground v.1.15,2013-01-17 03:55:00,
2013-01-16 23:00:00,33.2,28.0,29.93,West,263,7.0,7.0,81,0.00,,,0.00,Wunderground v.1.15,2013-01-17 04:00:00,
2013-01-16 23:06:00,33.1,27.9,29.94,West,267,7.0,9.0,81,0.00,,,0.00,Wunderground v.1.15,2013-01-17 04:06:00,
2013-01-16 23:11:00,33.1,27.9,29.93,West,261,7.0,7.0,81,0.00,,,0.00,Wunderground v.1.15,2013-01-17 04:11:00,
2013-01-16 23:17:00,33.1,28.2,29.93,WNW,298,6.0,8.0,82,0.00,,,0.00,Wunderground v.1.15,2013-01-17 04:17:00,
2013-01-16 23:22:00,33.1,28.2,29.94,WNW,285,6.0,9.0,82,0.00,,,0.00,Wunderground v.1.15,2013-01-17 04:22:00,
2013-01-16 23:28:00,33.0,28.4,29.95,West,264,6.0,9.0,83,0.00,,,0.00,Wunderground v.1.15,2013-01-17 04:28:00,
2013-01-16 23:34:00,33.0,28.4,29.94,WSW,248,6.0,10.0,83,0.00,,,0.00,Wunderground v.1.15,2013-01-17 04:34:00,
2013-01-16 23:39:00,33.0,28.4,29.94,West,279,6.0,10.0,83,0.00,,,0.00,Wunderground v.1.15,2013-01-17 04:39:00,
2013-01-16 23:45:00,33.0,28.4,29.95,West,275,6.0,9.0,83,0.00,,,0.00,Wunderground v.1.15,2013-01-17 04:45:00,
2013-01-16 23:51:00,33.0,28.4,29.95,West,261,6.0,10.0,83,0.00,,,0.00,Wunderground v.1.15,2013-01-17 04:51:00,
2013-01-16 23:56:00,33.0,28.7,29.95,WNW,299,6.0,10.0,84,0.00,,,0.00,Wunderground v.1.15,2013-01-17 04:56:00,